Flag for Australia Weather past 2 weeks in Darwin, Northern Territory, Australia

Now
73 °F

Passing clouds.


Feels Like: 74 °F
Forecast: 72 / 88 °F
Wind: 3 mph from Southeast

Location: Darwin Airport

Current Time: Jul 31, 2014 at 4:53:40 AM

Latest Report: Jul 31, 2014 at 4:30 AM


Visibility: N/A

Pressure: 29.95 "Hg

Humidity: 78%

Dew point: 66 °F

Location of DarwinLocation

Historic Weather in Darwin — Graph

°F

Darwin temperature yesterday

Maximum temperature yesterday: 91 °F (at 2:30 PM)
Minimum temperature yesterday: 68 °F (at 6:33 AM)
Average temperature yesterday: 79 °F

Past Weeks' High & Low Weather Summary

 TemperatureHumidityPressure
High91 °F (Jul 29, 2:00 PM)100% (Jul 17, 7:30 AM)30.04 "Hg (Jul 17, 7:30 AM)
Low64 °F (Jul 20, 6:00 AM)17% (Jul 22, 4:00 PM)29.86 "Hg (Jul 16, 3:00 PM)
Average76 °F63%29.95 "Hg
* Reported Jul 16 2:30 AM — Jul 31 3:00 AM, Darwin, Weather by CustomWeather, © 2014

Note: Actual official high and low records may vary slightly from our data, if they occured in-between our weather recording intervals... More about our weather records

Advertising

Darwin weather history for previous 24 hours

 ConditionsComfort  
Time TempWeatherWind HumidityBarometerVisibility
3:00 AM
Jul 31
70 °FClear.5 mph88%29.95 "Hg10 mi
2:30 AM72 °FClear.6 mph83%29.95 "Hg10 mi
2:00 AM72 °FClear.6 mph83%29.95 "Hg10 mi
1:30 AM73 °FClear.6 mph78%29.98 "Hg10 mi
12:30 AM72 °FClear.2 mph78%29.98 "Hg10 mi
12:00 AM72 °FClear.5 mph83%29.98 "Hg10 mi
11:30 PM
Jul 30
73 °FClear.5 mph78%29.95 "Hg10 mi
11:00 PM75 °FClear.5 mph69%29.95 "Hg10 mi
10:30 PM75 °FClear.3 mph69%29.95 "Hg10 mi
10:00 PM75 °FClear.3 mph69%29.95 "Hg10 mi
9:30 PM75 °FClear.3 mph69%29.95 "Hg10 mi
9:00 PM77 °FClear.5 mph65%29.95 "Hg10 mi
8:30 PM77 °FClear.6 mph65%29.95 "Hg10 mi
8:00 PM77 °FClear.10 mph61%29.92 "Hg10 mi
7:30 PM79 °FClear.13 mph54%29.92 "Hg10 mi
7:00 PM81 °FSunny.13 mph51%29.89 "Hg10 mi
6:30 PM81 °FSunny.15 mph51%29.89 "Hg10 mi
6:00 PM82 °FSunny.17 mph48%29.89 "Hg10 mi
5:30 PM84 °FSunny.18 mph45%29.89 "Hg10 mi
5:00 PM86 °FSunny.18 mph43%29.86 "Hg10 mi
4:30 PM86 °FSunny.16 mph43%29.86 "Hg10 mi
4:00 PM88 °FSunny.15 mph38%29.86 "Hg10 mi
3:30 PM91 °FSunny.10 mph21%29.86 "Hg10 mi
3:00 PM91 °FSunny.16 mph20%29.89 "Hg10 mi
2:30 PM91 °FSunny.15 mph21%29.89 "Hg10 mi
2:00 PM90 °FSunny.17 mph24%29.92 "Hg10 mi
1:30 PM90 °FSunny.20 mph24%29.92 "Hg10 mi
1:00 PM90 °FPassing clouds.17 mph24%29.95 "HgN/A
12:30 PM88 °FPassing clouds.18 mph27%29.95 "HgN/A
12:00 PM86 °FSunny.16 mph31%29.98 "Hg10 mi
11:30 AM86 °FSunny.18 mph33%29.98 "Hg10 mi
11:00 AM84 °FSunny.18 mph33%30.01 "Hg10 mi
10:30 AM84 °FSunny.17 mph35%30.01 "Hg10 mi
10:00 AM82 °FSunny.16 mph42%30.01 "Hg10 mi
9:30 AM81 °FSunny.12 mph54%30.01 "Hg10 mi
9:00 AM77 °FSunny.8 mph74%30.01 "Hg10 mi
8:30 AM73 °FSunny.7 mph83%30.01 "Hg10 mi
8:00 AM72 °FSunny.8 mph88%30.01 "Hg10 mi
7:30 AM70 °FClear.7 mph94%29.98 "Hg10 mi
7:00 AM68 °FFog.7 mph94%29.98 "HgN/A
6:33 AM68 °FClear.5 mph94%29.98 "Hg10 mi
5:30 AM70 °FClear.3 mph88%29.95 "Hg10 mi
5:00 AM70 °FClear.5 mph88%29.95 "Hg10 mi
4:30 AM70 °FClear.3 mph88%29.95 "Hg10 mi
4:00 AM72 °FClear.5 mph83%29.95 "Hg10 mi
Weather by CustomWeather, © 2014

See weather overviewHow to use our weather pages